Location: Stara Lesna
(49.1528°N, 20.2911°E)
Time: 07:28:20
(UTC+02:00)

Unknown - Pass Details

Date: 21 September 2019
Orbit: 548 x 551 km, 53.0° (Epoch: 21 October)

Event Time Altitude Azimuth Distance (km) Brightness Sun altitude
Exits shadow 05:27:21 12° 275° (W) 1,670 5.5 -9.9°
Maximum altitude 05:31:00 52° 351° (N) 687 4.1 -9.3°
Drops below altitude 10° 05:35:05 10° 69° (ENE) 1,829 7.9 -8.6°
Sets 05:37:22 0° 74° (ENE) 2,725 9.6 -8.3°
